Fort Yukon, AK

10:59 PM AKST on February 20, 2018 (GMT -0900)
Fort Yukon

Weather History for PFYU - October, 2012

Change the Weather History Date:

Monday, October 29, 2012

  Actual Average Record
Temperature  
Mean Temperature 6 °F -  
Max Temperature 10 °F 12 °F 35 °F (2013)
Min Temperature 3 °F 1 °F -25 °F (2008)
Degree Days  
Heating Degree Days 58    
Moisture  
Dew Point 6 °F    
Average Humidity 88    
Maximum Humidity 92    
Minimum Humidity 76    
Precipitation  
Precipitation 0.00 in - - ()
Sea Level Pressure  
Sea Level Pressure 29.93 in    
Wind  
Wind Speed 0 mph (North)    
Max Wind Speed 4 mph    
Max Gust Speed -    
Visibility 9 miles    
Events Snow    
Averages and records for this station are not official NWS values.
T = Trace of Precipitation, MM = Missing Value Source: NWS Daily Summary

Daily Weather History Graph

Daily Weather History Graph

Search for Another Location

Airport or City:

Trip Planner

Search our weather history database for the weather conditions in past years. The results will help you decide how hot, cold, wet, or windy it might be!

Date:

Astronomy

Oct. 29, 2012 Rise Set
Actual Time 9:31 AM AKDT 5:16 PM AKDT
Civil Twilight 8:32 AM AKDT 6:15 PM AKDT
Nautical Twilight 7:30 AM AKDT 7:17 PM AKDT
Astronomical Twilight 6:29 AM AKDT 8:17 PM AKDT
Moon 4:47 PM AKDT (10/29) 9:52 AM AKDT (10/29)
Length of Visible Light 9h 42m
Length of Day
7h 44m
Full, 100% of the Moon is Illuminated
Oct 29
Full
Nov 6
Last Quarter
Nov 13
New
Nov 20
First Quarter
Nov 28
Full

Hourly Weather History & Observations

Time (AKDT) Temp. Windchill Dew Point Humidity Pressure Visibility Wind Dir Wind Speed Gust Speed Precip Events Conditions
12:16 AM 10.4 °F - 8.6 °F 92% 30.00 in 10.0 mi Calm Calm - N/A   Overcast
12:36 AM 10.4 °F 4.0 °F 6.8 °F 85% 30.00 in 10.0 mi North 3.5 mph - N/A   Overcast
12:56 AM 10.4 °F - 6.8 °F 85% 29.99 in 10.0 mi Calm Calm - N/A   Overcast
1:16 AM 10.4 °F - 6.8 °F 85% 29.99 in 10.0 mi Calm Calm - N/A   Overcast
1:36 AM 8.6 °F - 6.8 °F 92% 29.99 in 10.0 mi Calm Calm - N/A   Overcast
1:56 AM 8.6 °F - 6.8 °F 92% 29.98 in 10.0 mi Calm Calm - N/A   Overcast
2:16 AM 8.6 °F - 6.8 °F 92% 29.97 in 10.0 mi Calm Calm - N/A   Overcast
2:36 AM 8.6 °F - 6.8 °F 92% 29.97 in 10.0 mi Calm Calm - N/A   Overcast
2:56 AM 8.6 °F - 6.8 °F 92% 29.96 in 10.0 mi Calm Calm - N/A   Overcast
3:16 AM 8.6 °F - 5.0 °F 85% 29.96 in 10.0 mi Calm Calm - N/A   Overcast
3:36 AM 8.6 °F - 5.0 °F 85% 29.95 in 10.0 mi Calm Calm - N/A   Overcast
3:56 AM 8.6 °F - 5.0 °F 85% 29.95 in 10.0 mi Calm Calm - N/A   Overcast
4:16 AM 8.6 °F - 5.0 °F 85% 29.94 in 10.0 mi Calm Calm - N/A   Overcast
4:36 AM 8.6 °F - 5.0 °F 85% 29.93 in 10.0 mi Calm Calm - N/A   Overcast
4:56 AM 8.6 °F - 5.0 °F 85% 29.93 in 10.0 mi Calm Calm - N/A   Overcast
5:16 AM 8.6 °F - 6.8 °F 92% 29.92 in 10.0 mi Calm Calm - N/A   Overcast
5:36 AM 8.6 °F - 6.8 °F 92% 29.92 in 10.0 mi Calm Calm - N/A   Overcast
5:56 AM 8.6 °F - 5.0 °F 85% 29.92 in 10.0 mi Calm Calm - N/A   Overcast
6:16 AM 8.6 °F - 6.8 °F 92% 29.91 in 10.0 mi Calm Calm - N/A   Overcast
6:36 AM 8.6 °F - 6.8 °F 92% 29.92 in 4.0 mi Calm Calm - N/A   Overcast
6:56 AM 8.6 °F - 6.8 °F 92% 29.91 in 3.0 mi Calm Calm - N/A   Overcast
7:16 AM 8.6 °F - 5.0 °F 85% 29.91 in 4.0 mi Calm Calm - N/A   Overcast
7:36 AM 8.6 °F - 6.8 °F 92% 29.90 in 2.5 mi Calm Calm - N/A   Overcast
7:38 AM 8.6 °F - 6.8 °F 92% 29.90 in 2.5 mi Calm Calm - N/A Snow Light Snow
7:47 AM 8.6 °F - 6.8 °F 92% 29.90 in 3.0 mi Calm Calm - N/A Snow Light Snow
7:56 AM 8.6 °F - 5.0 °F 85% 29.90 in 3.0 mi Calm Calm - N/A   Overcast
8:13 AM 8.6 °F - 5.0 °F 85% 29.90 in 3.0 mi Calm Calm - N/A Snow Light Snow
8:16 AM 8.6 °F - 5.0 °F 85% 29.91 in 3.0 mi Calm Calm - N/A   Overcast
8:36 AM 6.8 °F - 3.2 °F 85% 29.90 in 9.0 mi Calm Calm - N/A   Overcast
8:56 AM 6.8 °F - 3.2 °F 85% 29.91 in 10.0 mi Calm Calm - N/A   Overcast
9:16 AM 6.8 °F - 3.2 °F 85% 29.91 in 9.0 mi Calm Calm - N/A   Overcast
9:36 AM 6.8 °F - 3.2 °F 85% 29.91 in 10.0 mi Calm Calm - N/A   Overcast
9:56 AM 6.8 °F - 3.2 °F 85% 29.90 in 10.0 mi Calm Calm - N/A   Overcast
10:16 AM 6.8 °F - 1.4 °F 79% 29.90 in 10.0 mi Calm Calm - N/A   Overcast
10:36 AM 5.0 °F - 1.4 °F 85% 29.90 in 6.0 mi Calm Calm - N/A   Mostly Cloudy
10:49 AM 5.0 °F - 1.4 °F 85% 29.90 in 5.0 mi Calm Calm - N/A Snow Light Snow Showers
10:56 AM 5.0 °F - 1.4 °F 85% 29.90 in 6.0 mi Calm Calm - N/A   Scattered Clouds
11:16 AM 5.0 °F - 3.2 °F 92% 29.91 in 10.0 mi Calm Calm - N/A   Scattered Clouds
11:36 AM 3.2 °F - 1.4 °F 92% 29.91 in 10.0 mi Calm Calm - N/A   Scattered Clouds
11:56 AM 3.2 °F - 1.4 °F 92% 29.91 in 10.0 mi Calm Calm - N/A   Scattered Clouds
12:16 PM 5.0 °F - 1.4 °F 85% 29.91 in 10.0 mi Calm Calm - N/A   Scattered Clouds
12:36 PM 6.8 °F - 1.4 °F 79% 29.91 in 10.0 mi Calm Calm - N/A   Mostly Cloudy
12:56 PM 6.8 °F - 3.2 °F 85% 29.92 in 10.0 mi Calm Calm - N/A   Mostly Cloudy
1:16 PM 6.8 °F - 3.2 °F 85% 29.92 in 10.0 mi Calm Calm - N/A   Mostly Cloudy
1:36 PM 6.8 °F - 3.2 °F 85% 29.91 in 10.0 mi Calm Calm - N/A   Mostly Cloudy
1:56 PM 6.8 °F - 3.2 °F 85% 29.92 in 10.0 mi Calm Calm - N/A   Mostly Cloudy
2:16 PM 6.8 °F - 3.2 °F 85% 29.91 in 10.0 mi Calm Calm - N/A   Mostly Cloudy
2:36 PM 6.8 °F - 5.0 °F 92% 29.91 in 8.0 mi Calm Calm - N/A   Mostly Cloudy
2:56 PM 8.6 °F - 6.8 °F 92% 29.91 in 6.0 mi Calm Calm - N/A   Mostly Cloudy
3:03 PM 8.6 °F - 5.0 °F 85% 29.92 in 6.0 mi Calm Calm - N/A Snow Light Snow Showers
3:16 PM 8.6 °F - 6.8 °F 92% 29.92 in 6.0 mi Calm Calm - N/A   Overcast
3:36 PM 8.6 °F - 5.0 °F 85% 29.92 in 6.0 mi Calm Calm - N/A   Overcast
3:56 PM 8.6 °F - 6.8 °F 92% 29.92 in 6.0 mi Calm Calm - N/A   Overcast
4:36 PM 8.6 °F - 6.8 °F 92% 29.93 in 6.0 mi Calm Calm - N/A   Overcast
4:56 PM 10.4 °F - 6.8 °F 85% 29.93 in 10.0 mi Calm Calm - N/A   Overcast
5:16 PM 10.4 °F - 6.8 °F 85% 29.93 in 10.0 mi Calm Calm - N/A   Overcast
5:36 PM 10.4 °F - 6.8 °F 85% 29.93 in 10.0 mi Calm Calm - N/A   Overcast
5:56 PM 10.4 °F - 8.6 °F 92% 29.93 in 10.0 mi Calm Calm - N/A   Overcast
6:16 PM 10.4 °F - 8.6 °F 92% 29.94 in 10.0 mi Calm Calm - N/A   Overcast
6:36 PM 10.4 °F - 6.8 °F 85% 29.94 in 10.0 mi Calm Calm - N/A   Overcast
6:56 PM 10.4 °F - 6.8 °F 85% 29.94 in 10.0 mi Calm Calm - N/A   Overcast
7:16 PM 10.4 °F - 8.6 °F 92% 29.94 in 10.0 mi Calm Calm - N/A   Overcast
7:36 PM 10.4 °F - 8.6 °F 92% 29.94 in 9.0 mi Calm Calm - N/A   Overcast
7:56 PM 10.4 °F - 8.6 °F 92% 29.95 in 10.0 mi Calm Calm - N/A   Overcast
8:16 PM 10.4 °F - 8.6 °F 92% 29.95 in 10.0 mi Calm Calm - N/A   Overcast
8:36 PM 10.4 °F - 8.6 °F 92% 29.95 in 10.0 mi Calm Calm - N/A   Overcast
8:56 PM 10.4 °F - 8.6 °F 92% 29.96 in 10.0 mi Calm Calm - N/A   Overcast
9:16 PM 10.4 °F - 8.6 °F 92% 29.96 in 10.0 mi Calm Calm - N/A   Overcast
9:36 PM 10.4 °F - 6.8 °F 85% 29.97 in 10.0 mi Calm Calm - N/A   Overcast
9:56 PM 10.4 °F - 6.8 °F 85% 29.97 in 10.0 mi Calm Calm - N/A   Overcast
10:16 PM 10.4 °F - 6.8 °F 85% 29.98 in 10.0 mi Calm Calm - N/A   Overcast
10:36 PM 8.6 °F - 6.8 °F 92% 29.98 in 10.0 mi Calm Calm - N/A   Overcast
10:56 PM 8.6 °F - 6.8 °F 92% 29.98 in 10.0 mi Calm Calm - N/A   Overcast
11:16 PM 8.6 °F - 5.0 °F 85% 29.99 in 10.0 mi Calm Calm - N/A   Overcast
11:56 PM 6.8 °F - 3.2 °F 85% 30.00 in 10.0 mi Calm Calm - N/A   Overcast